Weather reports worldwide

Advertisment
Lecce, Italy (16332): temperature & dewpoint: 03.08.2020 22:00:00 - 09.08.2020 22:00:00 (CEST)Lecce, Italy (16332): wind speed: 03.08.2020 22:00:00 - 09.08.2020 22:00:00 (CEST)Lecce, Italy (16332): wind direction: 03.08.2020 22:00:00 - 09.08.2020 22:00:00 (CEST)Lecce, Italy (16332): reduced air pressure: 03.08.2020 22:00:00 - 09.08.2020 22:00:00 (CEST)Lecce, Italy (16332): visibility: 03.08.2020 22:00:00 - 09.08.2020 22:00:00 (CEST)
Date & Time tt [°C] td [°C] ff [km/h] ff [kn] dd ppp [hPa] vv [km]
09.08.2020 22:00:00 25,0 21,0 16 9 N - 10
09.08.2020 21:00:00 26,0 20,0 9 5 NNW - 10
09.08.2020 20:00:00 27,6 20,7 15 8 NNW 1010,8 10
09.08.2020 19:00:00 29,0 20,0 18 10 N - 10
09.08.2020 18:00:00 29,0 21,0 18 10 N - 10
09.08.2020 17:00:00 29,4 20,8 24 13 N 1010,9 10
09.08.2020 16:00:00 30,0 21,0 21 11 N - 10
09.08.2020 15:00:00 30,0 21,0 18 10 N - 10
09.08.2020 14:00:00 30,0 20,5 22 12 N 1011,1 10
09.08.2020 13:00:00 30,0 19,0 26 14 N - 10
09.08.2020 12:00:00 29,0 20,0 21 11 N - 10
09.08.2020 11:00:00 28,4 18,8 21 11 NE 1011,1 10
09.08.2020 10:00:00 28,0 20,0 21 11 N - 10
09.08.2020 09:00:00 27,0 19,0 18 10 NE - 10
09.08.2020 08:00:00 26,2 19,6 16 9 ENE 1010,7 10
09.08.2020 07:00:00 24,0 20,0 11 6 NNE - 10
09.08.2020 06:00:00 24,0 21,0 8 4 NNE - 10
09.08.2020 05:00:00 23,8 21,1 16 9 N 1009,9 10
09.08.2020 04:00:00 22,0 22,0 9 5 NW - 10
09.08.2020 03:00:00 23,0 21,0 9 5 NNW - 10
09.08.2020 02:00:00 23,4 22,7 11 6 NNW 1010,8 10
09.08.2020 01:00:00 24,0 23,0 18 10 NNW - 10
09.08.2020 00:00:00 24,0 23,0 15 8 NNW - 10
08.08.2020 23:00:00 24,0 22,6 21 11 NNW 1011,6 10
08.08.2020 22:00:00 24,0 21,0 16 9 NNW - 10
08.08.2020 21:00:00 25,0 21,0 21 11 NNW - 10
08.08.2020 20:00:00 26,0 19,9 18 10 N 1011,5 10
08.08.2020 19:00:00 27,0 20,0 18 10 N - 10
08.08.2020 18:00:00 27,0 20,0 22 12 N - 10
08.08.2020 17:00:00 28,0 20,5 24 13 N 1011,2 10
08.08.2020 16:00:00 28,0 18,0 26 14 N - 10
08.08.2020 15:00:00 28,0 21,0 24 13 N - 10
08.08.2020 14:00:00 27,6 20,4 26 14 N 1011,7 10
08.08.2020 13:00:00 28,0 21,0 28 15 N - 10
08.08.2020 12:00:00 28,0 21,0 21 11 N - 10
08.08.2020 11:00:00 27,0 20,3 22 12 N 1012,2 10
08.08.2020 10:00:00 27,0 21,0 21 11 NNE - 10
08.08.2020 09:00:00 26,0 22,0 11 6 NNW - 10
08.08.2020 08:00:00 23,6 21,5 9 5 NNW 1012,1 10
08.08.2020 07:00:00 20,0 20,0 5 3 NW - 10
08.08.2020 06:00:00 19,0 19,0 5 3 NNW - 10
08.08.2020 05:00:00 19,4 18,7 8 4 NW 1011,9 10
08.08.2020 04:00:00 19,0 19,0 5 3 NW - 10
08.08.2020 03:00:00 19,0 19,0 8 4 NW - 10
08.08.2020 02:00:00 20,2 19,5 8 4 NW 1012,4 10
08.08.2020 01:00:00 21,0 20,0 5 3 WNW - 10
08.08.2020 00:00:00 21,0 21,0 8 4 WNW - 10
07.08.2020 23:00:00 20,8 20,0 5 3 NW 1012,8 10
07.08.2020 22:00:00 22,0 21,0 5 3 NNW - 10
07.08.2020 21:00:00 23,0 20,0 9 5 N - 10
07.08.2020 20:00:00 24,2 20,9 5 3 NNE 1012,7 10
07.08.2020 19:00:00 25,0 20,0 13 7 NNE - 10
07.08.2020 18:00:00 26,0 20,0 15 8 NNE - 10
07.08.2020 17:00:00 27,2 20,3 18 10 N 1012,3 10
07.08.2020 16:00:00 28,0 21,0 21 11 N - 10
07.08.2020 15:00:00 27,0 20,0 21 11 NNE - 10
07.08.2020 14:00:00 27,6 19,9 24 13 N 1012,0 10
07.08.2020 13:00:00 28,0 21,0 22 12 N - 10
07.08.2020 12:00:00 28,0 21,0 18 10 N - 10
07.08.2020 11:00:00 25,8 21,2 15 8 N 1012,3 10
07.08.2020 10:00:00 26,0 22,0 13 7 NNW - 10
07.08.2020 09:00:00 24,0 22,0 15 8 NNW - 10
07.08.2020 08:00:00 22,4 20,7 9 5 NNW 1012,2 10
07.08.2020 07:00:00 20,0 19,0 8 4 WNW - 10
07.08.2020 06:00:00 18,0 18,0 4 2 WNW - 10
07.08.2020 05:00:00 18,0 17,5 4 2 N 1011,9 10
07.08.2020 04:00:00 18,0 18,0 2 1 - - 10
07.08.2020 03:00:00 18,0 18,0 4 2 WSW - 10
07.08.2020 02:00:00 18,6 18,1 4 2 W 1012,0 10
07.08.2020 01:00:00 20,0 19,0 4 2 SW - 10
07.08.2020 00:00:00 20,0 19,0 4 2 WNW - 10
06.08.2020 23:00:00 20,2 18,5 8 4 W 1012,3 10
06.08.2020 22:00:00 21,0 20,0 9 5 WNW - 10
06.08.2020 21:00:00 21,0 20,0 8 4 NW - 10
06.08.2020 20:00:00 21,8 21,0 9 5 NW 1011,6 10
06.08.2020 19:00:00 24,0 21,0 21 11 NNW - 10
06.08.2020 18:00:00 24,0 21,0 16 9 N - 10
06.08.2020 17:00:00 23,4 20,9 16 9 N 1010,7 8
06.08.2020 16:00:00 24,0 20,0 15 8 NNE - 10
06.08.2020 15:00:00 22,0 20,0 16 9 NNE - 6
06.08.2020 14:00:00 24,8 20,1 22 12 WNW 1010,2 4,0
06.08.2020 13:00:00 27,0 22,0 16 9 NW - 10
06.08.2020 12:00:00 25,0 21,0 22 12 N - 10
06.08.2020 11:00:00 24,2 19,7 18 10 NW 1010,1 10
06.08.2020 10:00:00 23,0 20,0 16 9 NNW - 10
06.08.2020 09:00:00 21,0 20,0 18 10 NW - 10
06.08.2020 08:00:00 20,0 19,4 16 9 NNW 1009,2 10
06.08.2020 07:00:00 20,0 20,0 16 9 NNW - 10
06.08.2020 06:00:00 20,0 20,0 13 7 NNW - 10
06.08.2020 05:00:00 19,8 19,3 11 6 NW 1009,0 10
06.08.2020 04:00:00 20,0 19,0 9 5 NW - 10
06.08.2020 03:00:00 19,0 19,0 9 5 NNW - 10
06.08.2020 02:00:00 19,4 19,1 9 5 NNW 1009,0 10
06.08.2020 01:00:00 19,0 19,0 9 5 NNW - 10
06.08.2020 00:00:00 19,0 19,0 9 5 NNW - 10
05.08.2020 23:00:00 19,6 19,4 13 7 NNW 1009,2 10
05.08.2020 22:00:00 20,0 20,0 4 2 NNE - 10
05.08.2020 21:00:00 20,0 19,0 9 5 N - 10
05.08.2020 20:00:00 21,0 19,7 18 10 NNW 1008,2 10
05.08.2020 19:00:00 24,0 22,0 16 9 NNW - 10
05.08.2020 18:00:00 24,0 20,0 8 4 NE - 10
05.08.2020 17:00:00 24,4 19,9 18 10 E 1007,9 10
05.08.2020 16:00:00 25,0 19,0 22 12 E - 10
05.08.2020 15:00:00 25,0 22,0 26 14 ENE - 10
05.08.2020 14:00:00 29,0 19,4 11 6 NNW 1007,3 10
05.08.2020 13:00:00 30,0 18,0 4 2 - - 10
05.08.2020 12:00:00 28,0 20,0 5 3 - - 10
05.08.2020 11:00:00 26,2 20,5 9 5 ENE 1007,6 10
05.08.2020 10:00:00 25,0 21,0 15 8 N - 10
05.08.2020 09:00:00 24,0 22,0 9 5 NE - 10
05.08.2020 08:00:00 23,0 15,3 11 6 NE 1007,5 10
05.08.2020 07:00:00 23,0 14,0 8 4 NNW - 10
05.08.2020 06:00:00 23,0 13,0 9 5 N - 10
05.08.2020 05:00:00 22,2 15,3 13 7 NNW 1006,2 10
05.08.2020 04:00:00 24,0 20,0 15 8 NNW - 10
05.08.2020 03:00:00 25,0 25,0 5 3 SSW - 10
05.08.2020 02:00:00 25,0 24,7 5 3 SSW 1007,1 10
05.08.2020 01:00:00 25,0 25,0 8 4 S - 10
05.08.2020 00:00:00 26,0 25,0 13 7 SSE - 10
04.08.2020 23:00:00 25,8 25,3 13 7 SSE 1006,8 10
04.08.2020 22:00:00 26,0 26,0 11 6 SSE - 10
04.08.2020 21:00:00 27,0 26,0 18 10 S - 10
04.08.2020 20:00:00 27,8 26,7 24 13 S 1006,1 10
04.08.2020 19:00:00 29,0 26,0 15 8 S - 10
04.08.2020 18:00:00 28,0 26,0 24 13 S - 10
04.08.2020 17:00:00 28,2 26,4 22 12 SSW 1007,0 10
04.08.2020 16:00:00 32,0 27,0 26 14 S - 10
04.08.2020 15:00:00 32,0 26,0 28 15 SSE - 10
04.08.2020 14:00:00 31,2 26,0 21 11 S 1007,4 10
04.08.2020 13:00:00 29,0 25,0 18 10 SSW - 10
04.08.2020 12:00:00 30,0 26,0 28 15 SSE - 10
04.08.2020 11:00:00 28,4 25,8 24 13 SE 1007,1 10
04.08.2020 10:00:00 29,0 25,0 16 9 SSE - 10
04.08.2020 09:00:00 29,0 25,0 22 12 SSE - 10
04.08.2020 08:00:00 27,0 25,2 18 10 SSE 1007,6 7
04.08.2020 07:00:00 25,0 24,0 15 8 S - 7
04.08.2020 06:00:00 25,0 25,0 18 10 SSE - 10
04.08.2020 05:00:00 25,0 24,5 16 9 S 1007,6 10
04.08.2020 04:00:00 26,0 25,0 18 10 S - 10
04.08.2020 03:00:00 26,0 23,0 24 13 S - 10
04.08.2020 02:00:00 26,0 25,5 22 12 S 1007,6 10
04.08.2020 01:00:00 26,0 26,0 22 12 S - 10
04.08.2020 00:00:00 26,0 26,0 18 10 S - 10
03.08.2020 23:00:00 26,0 25,5 26 14 S 1007,4 10
03.08.2020 22:00:00 27,0 26,0 21 11 SSE - 10

tt = temperature
td = dewpoint
ff = wind speed
dd = wind direction
ppp = reduced air pressure
vv = visibility

Next stations